Preview of NWS' New Version of Forecast
This preview is not operational and should not be used for support decisions.

Regional Weather Roundup (RWR)

Issued by Philadelphia/Mt Holly (PHI)

                            
000
ASUS41 KPHI 231312
RWRPHI

REGIONAL WEATHER ROUNDUP
NATIONAL WEATHER SERVICE MOUNT HOLLY NJ
900 AM EDT SAT MAR 23 2019

NOTE:  "FAIR" INDICATES FEW OR NO CLOUDS BELOW 12,000 FEET WITH NO
SIGNIFICANT WEATHER AND/OR OBSTRUCTIONS TO VISIBILITY.

 * = STATION DOES NOT REPORT PRECIPITATION (E.G. RAIN, SNOW, ETC.) 
        OR FOG.

NJZ015>026-231400-
SOUTHERN NEW JERSEY
  
CITY           SKY/WX    TMP DP  RH WIND       PRES   REMARKS
POMONA         FAIR      39  24  55 W25G33    29.88R WCI  28          
WILDWOOD*      FAIR      38  25  59 W17G28    29.96R WCI  28          
MILLVILLE      FAIR      38  23  55 NW24G32   29.93R WCI  27          
WRIGHTSTOWN    PTSUNNY   38  22  51 W23G36    29.84R WCI  28          
MOUNT HOLLY    FAIR      38  22  52 W9G31     29.89R WCI  31          
TRENTON        FAIR      36  22  56 NW18G26   29.85R WCI  26          

$$
NJZ001>014-231400-
NORTHERN NEW JERSEY
  
CITY           SKY/WX    TMP DP  RH WIND       PRES   REMARKS
SUSSEX         FAIR      33  20  58 W13G21    29.80R WCI  24          
ANDOVER*         N/A     33  20  58 NW8G20    29.82R WCI  26          
MORRISTOWN     PTSUNNY   36  23  60 NW16G26   29.82R WCI  26          
NEWARK         PTSUNNY   37  21  52 W24G30    29.78R WCI  26          
TETERBORO      FAIR      36  22  56 NW15G30   29.77R WCI  27          
CALDWELL       FAIR      35  21  56 NW18G25   29.79R WCI  24          
SOMERVILLE     FAIR      37  22  54 NW16G29   29.81R WCI  28          
ALLAIRE*       PTSUNNY   36  22  56 W24G32    29.81R WCI  24          
TOMS RIVER*    FAIR      38  23  55 NW21G33   29.84R WCI  28          

$$
PAZ043-044-047-054-055-060>062-066>071-231400-
EASTERN PENNSYLVANIA
  
CITY           SKY/WX    TMP DP  RH WIND       PRES   REMARKS
PHILADELPHIA   PTSUNNY   38  21  50 W17G29    29.93R WCI  28          
NORTH PHILA    FAIR      39  22  50 NW21G28   29.90R WCI  29          
BLUE BELL*     FAIR      36  23  60 NW10G26   29.90R WCI  28          
DOYLESTOWN     FAIR      36  21  54 NW17G32   29.86R WCI  26          
QUAKERTOWN*    SUNNY     36  21  55 W14G23    29.88  WCI  27          
PERKASIE*      FAIR      36  21  55 NW21G35   29.87R WCI  24          
POTTSTOWN      FAIR      36  22  56 NW18G25   29.91R WCI  26          
LANCASTER      FAIR      37  22  54 W25G32    29.96R WCI  25          
COATESVILLE    FAIR      34  23  64 NW24G33   29.93R WCI  21          
READING        FAIR      36  24  62 W24G33    29.93R WCI  24          
ALLENTOWN      FAIR      37  21  52 W23G30    29.89R WCI  26          
MOUNT POCONO   PTSUNNY   24  17  74 W21G37    29.77R WCI   9          
HAZLETON       CLOUDY    30  19  64 NW14G29   29.88R WCI  20          
LEHIGHTON      FAIR      34  21  60 W10G16    29.91R WCI  26          
WILKES BARRE   PTSUNNY   29  17  61 NW18G32   29.90R WCI  16          

$$
DEZALL-MDZ008-012-015-019-020-231400-
DELAWARE AND EASTERN MARYLAND
  
CITY           SKY/WX    TMP DP  RH WIND       PRES   REMARKS
WILMINGTON     FAIR      38  22  52 NW20G30   29.96R WCI  28          
DOVER          FAIR      38  23  54 W17G23    29.97R WCI  28          
GEORGETOWN     FAIR      41  25  53 W10G22    29.99R                  
EASTON         SUNNY     39  25  56 W17       30.05R WCI  30          
PATUXENT       FAIR      40  24  53 W20       30.04R WCI  30          
OCEAN CITY     FAIR      39  25  57 NW17G31   29.99R WCI  30          
WALLOPS ISLAND FAIR      42  24  49 W23G32    30.02R                  
CAMBRIDGE      SUNNY     39  25  56 NW22      30.03R WCI  29          
SALISBURY      FAIR      39  26  59 NW16G25   30.01R WCI  30          

$$
PAZ001-021-NYZ056-072-MDZ011-DCZ001-231400-
OTHER NEARBY LOCATIONS
  
CITY           SKY/WX    TMP DP  RH WIND       PRES   REMARKS
HARRISBURG     FAIR      36  20  52 NW21      29.98R WCI  25          
STATE COLLEGE  SUNNY     28  14  54 NW22G29   30.03R WCI  15          
WILLIAMSPORT   FAIR      33  15  47 W23G29    29.98R WCI  21          
BINGHAMTON     FLURRIES  21  14  74 NW17G29   29.86R WCI   7          
NEW YORK CITY  FAIR      36  21  54 W8G26     29.79R WCI  30          
BALTIMORE      FAIR      38  23  55 W14       30.02R WCI  30          
WASHINGTON DC  FAIR      39  21  48 W20G29    30.07R WCI  29          

$$